Weather History for PHTO - December, 2013

Change the Weather History Date:

Wednesday, December 4, 2013

  Actual Average Record
Temperature  
Mean Temperature 73 °F 73 °F  
Max Temperature 82 °F 80 °F 88 °F (1966)
Min Temperature 63 °F 66 °F 59 °F (1954)
Degree Days  
Heating Degree Days 0 0  
Month to date heating degree days 0 0  
Since 1 July heating degree days 0 0  
Cooling Degree Days 8 8  
Month to date cooling degree days 35 32  
Year to date cooling degree days 3311 3039  
Growing Degree Days 22 (Base 50)    
Moisture  
Dew Point 62 °F    
Average Humidity 79    
Maximum Humidity 100    
Minimum Humidity 57    
Precipitation  
Precipitation 0.00 in 0.40 in 2.12 in (1968)
Month to date precipitation 0.59 1.64  
Year to date precipitation 82.57 116.79  
Snow  
Snow 0.00 in - - ()
Month to date snowfall 0.0  
Since 1 July snowfall 0.0  
Snow Depth 0.00 in    
Sea Level Pressure  
Sea Level Pressure 29.97 in    
Wind  
Wind Speed 7 mph (SSW)    
Max Wind Speed 14 mph    
Max Gust Speed 18 mph    
Visibility 10 miles    
Events      
T = Trace of Precipitation, MM = Missing Value Source: NWS Daily Summary

Daily Weather History Graph

Daily Weather History Graph

Search for Another Location

Airport or City:

Trip Planner

Search our weather history database for the weather conditions in past years. The results will help you decide how hot, cold, wet, or windy it might be!

Date:

Astronomy

Dec. 04, 2013 Rise Set
Actual Time 6:40 AM HST 5:40 PM HST
Civil Twilight 6:16 AM HST 6:04 PM HST
Nautical Twilight 5:49 AM HST 6:31 PM HST
Astronomical Twilight 5:22 AM HST 6:58 PM HST
Moon 8:24 AM HST (12/4) 7:56 PM HST (12/4)
Length of Visible Light 11h 47m
Length of Day
11h 00m
Waxing Crescent, 5% of the Moon is Illuminated
Dec 4
Waxing Crescent
Dec 9
First Quarter
Dec 16
Full
Dec 25
Last Quarter
Jan 1
New

Hourly Weather History & Observations

Time (HST) Temp. Heat Index Dew Point Humidity Pressure Visibility Wind Dir Wind Speed Gust Speed Precip Events Conditions
12:53 AM 66.0 °F - 64.9 °F 96% 30.00 in 10.0 mi WSW 5.8 mph - N/A   Partly Cloudy
1:53 AM 66.9 °F - 64.0 °F 90% 29.98 in 10.0 mi SW 6.9 mph - N/A   Partly Cloudy
2:53 AM 66.0 °F - 60.1 °F 81% 29.97 in 10.0 mi WSW 8.1 mph - N/A   Partly Cloudy
3:53 AM 64.0 °F - 57.9 °F 80% 29.96 in 10.0 mi WSW 8.1 mph - N/A   Partly Cloudy
4:53 AM 64.0 °F - 57.0 °F 78% 29.96 in 10.0 mi SW 9.2 mph - N/A   Partly Cloudy
5:53 AM 63.0 °F - 55.0 °F 75% 29.96 in 10.0 mi SW 9.2 mph - N/A   Partly Cloudy
6:53 AM 64.0 °F - 55.0 °F 73% 29.97 in 10.0 mi WSW 10.4 mph - N/A   Mostly Cloudy
7:53 AM 66.0 °F - 55.0 °F 68% 29.98 in 10.0 mi WSW 9.2 mph - N/A   Mostly Cloudy
8:53 AM 73.9 °F - 57.9 °F 57% 30.00 in 10.0 mi WSW 4.6 mph - N/A   Mostly Cloudy
9:53 AM 79.0 °F - 62.1 °F 56% 30.01 in 10.0 mi South 4.6 mph - N/A   Scattered Clouds
10:53 AM 80.1 °F 81.9 °F 64.9 °F 60% 29.99 in 10.0 mi SE 5.8 mph - N/A   Scattered Clouds
11:53 AM 81.0 °F 82.7 °F 64.9 °F 58% 29.97 in 10.0 mi East 9.2 mph - N/A   Partly Cloudy
12:53 PM 80.1 °F 81.9 °F 64.9 °F 60% 29.94 in 10.0 mi ESE 11.5 mph - N/A   Scattered Clouds
1:53 PM 80.1 °F 81.7 °F 64.0 °F 58% 29.92 in 10.0 mi East 8.1 mph - N/A   Mostly Cloudy
2:53 PM 80.1 °F 81.9 °F 64.9 °F 60% 29.91 in 10.0 mi East 10.4 mph 17.3 mph N/A   Scattered Clouds
3:53 PM 78.1 °F - 64.9 °F 64% 29.91 in 10.0 mi East 10.4 mph - N/A   Scattered Clouds
4:53 PM 75.9 °F - 64.9 °F 69% 29.92 in 10.0 mi East 6.9 mph - N/A   Clear
5:53 PM 72.0 °F - 64.9 °F 78% 29.94 in 10.0 mi South 3.5 mph - N/A   Clear
6:53 PM 72.0 °F - 66.0 °F 81% 29.97 in 10.0 mi SW 4.6 mph - N/A   Overcast
7:53 PM 71.1 °F - 66.0 °F 84% 29.99 in 10.0 mi West 4.6 mph - N/A   Overcast
8:53 PM 70.0 °F - 64.0 °F 81% 30.01 in 10.0 mi WSW 6.9 mph - N/A   Mostly Cloudy
9:53 PM 69.1 °F - 60.1 °F 73% 30.01 in 10.0 mi SW 4.6 mph - N/A   Mostly Cloudy
10:53 PM 69.1 °F - 63.0 °F 81% 30.01 in 10.0 mi SSW 3.5 mph - N/A   Overcast
11:53 PM 69.1 °F - 66.0 °F 90% 30.00 in 10.0 mi SW 4.6 mph - N/A   Overcast